When you browse on this site, cookies collect data to enhance your experience and personalize the content and advertising you see.
Visit our Privacy Policy to learn more. By continuing to use the site, you agree to this use of cookies and data.
  • Em Portugal
  • Lista de países
  • Para 7 dias
  • Temperatura da água
  • Mapas de satélite
  • Mapa do tempo
  • Widgets de tempo
  • user-avatar
    Iniciar Sessão

    Previsão horária em Saga

    Hoje, 23 Abril, Terça-feira

    Tempo Temperatura Precipitação Vento Pressão Humidade
    00:00 +20°C° 0 mm 0 m/s 761 mmHg 60%
    01:00 +20°C° 0 mm 0 m/s 761 mmHg 60%
    02:00 +20°C° 0 mm 0 m/s 761 mmHg 61%
    03:00 +20°C° 0 mm 0 m/s 760 mmHg 61%
    04:00 +20°C° 0 mm 0 m/s 760 mmHg 62%
    05:00 +22°C° 0 mm 1 m/s 760 mmHg 63%
    06:00 +22°C° 0 mm 1 m/s 760 mmHg 63%
    07:00 +23°C° 0 mm 1 m/s 760 mmHg 62%
    08:00 +24°C° 0 mm 1 m/s 760 mmHg 61%
    09:00 +24°C° 0 mm 1 m/s 760 mmHg 61%
    10:00 +24°C° 0.1 mm 1 m/s 760 mmHg 62%
    11:00 +25°C° 0.1 mm 1 m/s 760 mmHg 62%
    12:00 +25°C° 0.1 mm 1 m/s 760 mmHg 63%
    13:00 +24°C° 0.4 mm 1 m/s 760 mmHg 64%
    14:00 +24°C° 0.4 mm 1 m/s 760 mmHg 66%
    15:00 +24°C° 0.4 mm 2 m/s 759 mmHg 68%
    16:00 +23°C° 0.8 mm 2 m/s 759 mmHg 71%
    17:00 +23°C° 0.8 mm 2 m/s 759 mmHg 73%
    18:00 +21°C° 0.8 mm 3 m/s 758 mmHg 76%
    19:00 +21°C° 1 mm 3 m/s 758 mmHg 77%
    20:00 +20°C° 1 mm 3 m/s 758 mmHg 78%
    21:00 +20°C° 1 mm 3 m/s 757 mmHg 78%
    22:00 +20°C° 0.6 mm 3 m/s 757 mmHg 79%
    23:00 +20°C° 0.6 mm 3 m/s 757 mmHg 80%

    Amanhã, 24 Abril, Quarta-feira

    Tempo Temperatura Precipitação Vento Pressão Humidade
    00:00 +20°C° 0.6 mm 3 m/s 756 mmHg 81%
    01:00 +20°C° 0.5 mm 3 m/s 756 mmHg 82%
    02:00 +20°C° 0.5 mm 3 m/s 756 mmHg 83%
    03:00 +21°C° 0.5 mm 3 m/s 756 mmHg 84%
    04:00 +21°C° 0.7 mm 3 m/s 755 mmHg 86%
    05:00 +21°C° 0.7 mm 3 m/s 755 mmHg 87%
    06:00 +21°C° 0.7 mm 3 m/s 755 mmHg 89%
    07:00 +21°C° 0.2 mm 3 m/s 756 mmHg 89%
    08:00 +21°C° 0.2 mm 2 m/s 756 mmHg 89%
    09:00 +23°C° 0.2 mm 2 m/s 756 mmHg 89%
    10:00 +24°C° 0 mm 3 m/s 756 mmHg 85%
    11:00 +24°C° 0 mm 3 m/s 756 mmHg 80%
    12:00 +25°C° 0 mm 4 m/s 756 mmHg 76%
    13:00 +26°C° 0 mm 4 m/s 755 mmHg 71%
    14:00 +27°C° 0 mm 4 m/s 755 mmHg 67%
    15:00 +27°C° 0 mm 4 m/s 755 mmHg 62%
    16:00 +27°C° 0 mm 4 m/s 755 mmHg 66%
    17:00 +26°C° 0 mm 4 m/s 754 mmHg 70%
    18:00 +25°C° 0 mm 3 m/s 754 mmHg 73%
    19:00 +24°C° 0 mm 3 m/s 754 mmHg 77%
    20:00 +23°C° 0 mm 2 m/s 755 mmHg 81%
    21:00 +21°C° 0 mm 2 m/s 755 mmHg 85%
    22:00 +22°C° 0 mm 1 m/s 755 mmHg 86%
    23:00 +22°C° 0 mm 1 m/s 755 mmHg 87%

    Depois de amanhã, 25 Abril, Quinta-feira

    Tempo Temperatura Precipitação Vento Pressão Humidade
    00:00 +22°C° 0 mm 1 m/s 755 mmHg 88%
    01:00 +22°C° 0 mm 1 m/s 754 mmHg 89%
    02:00 +21°C° 0 mm 1 m/s 754 mmHg 90%
    03:00 +21°C° 0 mm 1 m/s 753 mmHg 91%
    04:00 +21°C° 0 mm 1 m/s 753 mmHg 91%
    05:00 +21°C° 0 mm 1 m/s 754 mmHg 91%
    06:00 +20°C° 0 mm 1 m/s 754 mmHg 91%
    07:00 +21°C° 0 mm 1 m/s 754 mmHg 85%
    08:00 +22°C° 0 mm 1 m/s 754 mmHg 79%
    09:00 +23°C° 0 mm 1 m/s 754 mmHg 73%
    10:00 +24°C° 0 mm 1 m/s 754 mmHg 69%
    11:00 +25°C° 0 mm 1 m/s 754 mmHg 65%
    12:00 +26°C° 0 mm 1 m/s 754 mmHg 61%
    13:00 +26°C° 0 mm 2 m/s 754 mmHg 61%
    14:00 +26°C° 0 mm 2 m/s 754 mmHg 61%
    15:00 +25°C° 0 mm 2 m/s 753 mmHg 61%
    16:00 +25°C° 0 mm 2 m/s 753 mmHg 65%
    17:00 +24°C° 0 mm 3 m/s 753 mmHg 69%
    18:00 +22°C° 0 mm 3 m/s 754 mmHg 73%
    19:00 +21°C° 0 mm 2 m/s 754 mmHg 76%
    20:00 +20°C° 0 mm 2 m/s 754 mmHg 79%
    21:00 +19°C° 0 mm 2 m/s 755 mmHg 82%
    22:00 +19°C° 0 mm 2 m/s 755 mmHg 83%
    23:00 +18°C° 0 mm 2 m/s 755 mmHg 84%

    26 Abril, Sexta-feira

    Tempo Temperatura Precipitação Vento Pressão Humidade
    00:00 +18°C° 0 mm 2 m/s 755 mmHg 86%
    01:00 +18°C° 0 mm 2 m/s 755 mmHg 85%
    02:00 +18°C° 0 mm 2 m/s 755 mmHg 85%
    03:00 +18°C° 0 mm 2 m/s 755 mmHg 85%
    04:00 +18°C° 0 mm 2 m/s 755 mmHg 85%
    05:00 +17°C° 0 mm 2 m/s 755 mmHg 85%
    06:00 +17°C° 0 mm 2 m/s 756 mmHg 85%
    07:00 +18°C° 0 mm 2 m/s 756 mmHg 79%
    08:00 +18°C° 0 mm 2 m/s 757 mmHg 74%
    09:00 +19°C° 0 mm 2 m/s 757 mmHg 68%
    10:00 +20°C° 0 mm 2 m/s 758 mmHg 63%
    11:00 +21°C° 0 mm 3 m/s 758 mmHg 58%
    12:00 +21°C° 0 mm 3 m/s 758 mmHg 53%
    13:00 +21°C° 0 mm 3 m/s 758 mmHg 51%
    14:00 +22°C° 0 mm 3 m/s 758 mmHg 49%
    15:00 +22°C° 0 mm 4 m/s 758 mmHg 48%
    16:00 +21°C° 0 mm 4 m/s 758 mmHg 51%
    17:00 +20°C° 0 mm 4 m/s 758 mmHg 54%
    18:00 +19°C° 0 mm 5 m/s 759 mmHg 57%
    19:00 +18°C° 0 mm 4 m/s 759 mmHg 61%
    20:00 +17°C° 0 mm 4 m/s 760 mmHg 64%
    21:00 +14°C° 0 mm 4 m/s 761 mmHg 67%
    22:00 +14°C° 0 mm 4 m/s 761 mmHg 68%
    23:00 +13°C° 0 mm 4 m/s 761 mmHg 68%

    27 Abril, Sábado

    Tempo Temperatura Precipitação Vento Pressão Humidade
    00:00 +13°C° 0 mm 3 m/s 762 mmHg 69%
    01:00 +13°C° 0 mm 3 m/s 762 mmHg 69%
    02:00 +12°C° 0 mm 3 m/s 762 mmHg 69%
    03:00 +12°C° 0 mm 3 m/s 762 mmHg 69%
    04:00 +12°C° 0 mm 4 m/s 763 mmHg 69%
    05:00 +12°C° 0 mm 4 m/s 763 mmHg 69%
    06:00 +12°C° 0 mm 4 m/s 764 mmHg 70%
    07:00 +13°C° 0 mm 5 m/s 764 mmHg 63%
    08:00 +14°C° 0 mm 5 m/s 765 mmHg 57%
    09:00 +15°C° 0 mm 6 m/s 765 mmHg 50%
    10:00 +16°C° 0 mm 5 m/s 765 mmHg 45%
    11:00 +17°C° 0 mm 5 m/s 765 mmHg 41%
    12:00 +20°C° 0 mm 4 m/s 765 mmHg 36%
    13:00 +20°C° 0 mm 4 m/s 765 mmHg 35%
    14:00 +20°C° 0 mm 4 m/s 765 mmHg 33%
    15:00 +21°C° 0 mm 4 m/s 764 mmHg 32%
    16:00 +20°C° 0 mm 4 m/s 764 mmHg 35%
    17:00 +19°C° 0 mm 4 m/s 765 mmHg 39%
    18:00 +18°C° 0 mm 4 m/s 765 mmHg 42%
    19:00 +17°C° 0 mm 4 m/s 765 mmHg 46%
    20:00 +16°C° 0 mm 3 m/s 766 mmHg 50%
    21:00 +14°C° 0 mm 3 m/s 766 mmHg 54%
    22:00 +14°C° 0 mm 2 m/s 766 mmHg 55%
    23:00 +14°C° 0 mm 2 m/s 766 mmHg 57%

    28 Abril, Domingo

    Tempo Temperatura Precipitação Vento Pressão Humidade
    00:00 +13°C° 0 mm 2 m/s 766 mmHg 59%
    01:00 +13°C° 0 mm 1 m/s 766 mmHg 59%
    02:00 +13°C° 0 mm 1 m/s 766 mmHg 59%
    03:00 +13°C° 0 mm 1 m/s 766 mmHg 59%
    04:00 +13°C° 0 mm 1 m/s 766 mmHg 58%
    05:00 +13°C° 0 mm 1 m/s 766 mmHg 58%
    06:00 +13°C° 0 mm 1 m/s 767 mmHg 57%
    07:00 +15°C° 0 mm 1 m/s 767 mmHg 53%
    08:00 +18°C° 0 mm 1 m/s 767 mmHg 49%
    09:00 +20°C° 0 mm 1 m/s 767 mmHg 45%
    10:00 +20°C° 0 mm 2 m/s 767 mmHg 42%
    11:00 +21°C° 0 mm 2 m/s 766 mmHg 39%
    12:00 +24°C° 0 mm 2 m/s 766 mmHg 36%
    13:00 +24°C° 0 mm 3 m/s 766 mmHg 34%
    14:00 +25°C° 0 mm 3 m/s 765 mmHg 33%
    15:00 +25°C° 0 mm 3 m/s 765 mmHg 32%
    16:00 +25°C° 0 mm 3 m/s 765 mmHg 38%
    17:00 +24°C° 0 mm 2 m/s 765 mmHg 43%
    18:00 +23°C° 0 mm 2 m/s 765 mmHg 48%
    19:00 +21°C° 0 mm 2 m/s 765 mmHg 53%
    20:00 +20°C° 0 mm 2 m/s 765 mmHg 58%
    21:00 +19°C° 0 mm 2 m/s 765 mmHg 62%
    22:00 +19°C° 0 mm 2 m/s 765 mmHg 64%
    23:00 +19°C° 0 mm 3 m/s 764 mmHg 65%
    Mostrar mais